TimeCDT,TemperatureF,Dew PointF,Humidity,Sea Level PressureIn,VisibilityMPH,Wind Direction,Wind SpeedMPH,Gust SpeedMPH,PrecipitationIn,Events,Conditions,WindDirDegrees,DateUTC
12:15 AM,51.8,26.6,38,30.30,10.0,NNE,9.2,-,N/A,,Overcast,20,2012-10-12 05:15:00
12:35 AM,50.0,26.6,40,30.31,10.0,North,10.4,-,N/A,,Overcast,10,2012-10-12 05:35:00
12:55 AM,50.0,26.6,40,30.32,10.0,North,6.9,-,N/A,,Overcast,360,2012-10-12 05:55:00
1:15 AM,50.0,26.6,40,30.32,10.0,North,8.1,-,N/A,,Overcast,360,2012-10-12 06:15:00
1:35 AM,48.2,26.6,43,30.33,10.0,North,6.9,-,N/A,,Overcast,360,2012-10-12 06:35:00
1:55 AM,48.2,26.6,43,30.33,10.0,North,10.4,-,N/A,,Overcast,10,2012-10-12 06:55:00
2:15 AM,48.2,26.6,43,30.33,10.0,North,9.2,-,N/A,,Overcast,360,2012-10-12 07:15:00
2:35 AM,46.4,26.6,46,30.34,10.0,North,8.1,-,N/A,,Scattered Clouds,10,2012-10-12 07:35:00
2:55 AM,46.4,24.8,43,30.34,10.0,North,8.1,-,N/A,,Scattered Clouds,10,2012-10-12 07:55:00
3:15 AM,44.6,24.8,46,30.34,10.0,NNE,8.1,-,N/A,,Clear,20,2012-10-12 08:15:00
3:35 AM,44.6,24.8,46,30.34,10.0,NNE,8.1,-,N/A,,Clear,30,2012-10-12 08:35:00
3:55 AM,42.8,23.0,46,30.35,10.0,NNE,8.1,-,N/A,,Clear,30,2012-10-12 08:55:00
4:15 AM,42.8,24.8,49,30.35,10.0,NNE,8.1,-,N/A,,Clear,30,2012-10-12 09:15:00
4:35 AM,42.8,23.0,46,30.36,10.0,NE,8.1,-,N/A,,Clear,40,2012-10-12 09:35:00
4:55 AM,41.0,21.2,45,30.36,10.0,NE,8.1,-,N/A,,Clear,40,2012-10-12 09:55:00
5:15 AM,39.2,21.2,49,30.37,10.0,NE,8.1,-,N/A,,Clear,40,2012-10-12 10:15:00
5:35 AM,39.2,21.2,49,30.38,10.0,NE,8.1,-,N/A,,Clear,40,2012-10-12 10:35:00
5:55 AM,39.2,21.2,49,30.38,10.0,NE,8.1,-,N/A,,Clear,40,2012-10-12 10:55:00
6:15 AM,37.4,23.0,56,30.39,10.0,NE,5.8,-,N/A,,Clear,50,2012-10-12 11:15:00
6:35 AM,37.4,21.2,52,30.39,10.0,NE,4.6,-,N/A,,Clear,50,2012-10-12 11:35:00
6:55 AM,37.4,21.2,52,30.39,10.0,NE,9.2,-,N/A,,Clear,50,2012-10-12 11:55:00
7:15 AM,37.4,21.2,52,30.41,10.0,NE,6.9,-,N/A,,Clear,50,2012-10-12 12:15:00
7:35 AM,37.4,21.2,52,30.41,10.0,NE,8.1,-,N/A,,Clear,40,2012-10-12 12:35:00
7:55 AM,39.2,21.2,49,30.41,10.0,NE,8.1,-,N/A,,Clear,40,2012-10-12 12:55:00
8:15 AM,41.0,21.2,45,30.42,10.0,NE,12.7,-,N/A,,Clear,50,2012-10-12 13:15:00
8:35 AM,42.8,21.2,42,30.43,10.0,ENE,15.0,-,N/A,,Clear,60,2012-10-12 13:35:00
8:55 AM,44.6,21.2,39,30.44,10.0,ENE,8.1,-,N/A,,Clear,70,2012-10-12 13:55:00
9:15 AM,44.6,21.2,39,30.45,10.0,East,8.1,-,N/A,,Clear,80,2012-10-12 14:15:00
9:35 AM,46.4,17.6,32,30.45,10.0,ENE,12.7,16.1,N/A,,Clear,70,2012-10-12 14:35:00
9:55 AM,48.2,17.6,30,30.44,10.0,East,11.5,-,N/A,,Clear,100,2012-10-12 14:55:00
10:15 AM,48.2,15.8,27,30.44,10.0,ENE,11.5,-,N/A,,Clear,70,2012-10-12 15:15:00
10:35 AM,50.0,10.4,20,30.44,10.0,East,11.5,-,N/A,,Clear,100,2012-10-12 15:35:00
11:15 AM,51.8,10.4,19,30.43,10.0,East,8.1,17.3,N/A,,Clear,90,2012-10-12 16:15:00
11:35 AM,53.6,8.6,16,30.43,10.0,East,9.2,-,N/A,,Clear,90,2012-10-12 16:35:00
11:55 AM,53.6,6.8,15,30.42,10.0,SE,10.4,-,N/A,,Clear,130,2012-10-12 16:55:00
12:15 PM,55.4,-0.4,10,30.41,10.0,East,9.2,-,N/A,,Clear,100,2012-10-12 17:15:00
12:35 PM,55.4,-0.4,10,30.40,10.0,ESE,11.5,-,N/A,,Clear,110,2012-10-12 17:35:00
12:55 PM,55.4,-0.4,10,30.39,10.0,SE,5.8,-,N/A,,Clear,130,2012-10-12 17:55:00
1:35 PM,57.2,-9.4,6,30.37,10.0,East,11.5,-,N/A,,Clear,100,2012-10-12 18:35:00
1:55 PM,57.2,-9.4,6,30.36,10.0,East,10.4,16.1,N/A,,Clear,100,2012-10-12 18:55:00
2:15 PM,59.0,-9.4,6,30.35,10.0,SE,5.8,-,N/A,,Clear,140,2012-10-12 19:15:00
2:35 PM,59.0,-9.4,6,30.34,10.0,East,8.1,-,N/A,,Clear,80,2012-10-12 19:35:00
2:55 PM,60.8,-11.2,5,30.33,10.0,ESE,5.8,-,N/A,,Clear,110,2012-10-12 19:55:00
3:15 PM,60.8,-20.2,4,30.32,10.0,SE,9.2,-,N/A,,Clear,130,2012-10-12 20:15:00
3:35 PM,60.8,-20.2,4,30.31,10.0,SE,8.1,-,N/A,,Clear,130,2012-10-12 20:35:00
3:55 PM,60.8,-22.0,4,30.31,10.0,ESE,10.4,-,N/A,,Clear,110,2012-10-12 20:55:00
4:15 PM,60.8,-14.8,4,30.30,10.0,ESE,8.1,16.1,N/A,,Clear,120,2012-10-12 21:15:00
4:35 PM,60.8,-5.8,7,30.28,10.0,ESE,10.4,16.1,N/A,,Clear,110,2012-10-12 21:35:00
4:55 PM,60.8,-2.2,8,30.28,10.0,ESE,8.1,-,N/A,,Clear,120,2012-10-12 21:55:00
5:15 PM,60.8,3.2,10,30.28,10.0,SE,9.2,-,N/A,,Clear,130,2012-10-12 22:15:00
5:55 PM,57.2,12.2,17,30.26,10.0,SE,5.8,-,N/A,,Clear,130,2012-10-12 22:55:00
6:15 PM,55.4,17.6,23,30.26,10.0,ESE,3.5,-,N/A,,Clear,120,2012-10-12 23:15:00
6:35 PM,55.4,19.4,25,30.25,10.0,ESE,4.6,-,N/A,,Clear,110,2012-10-12 23:35:00
6:55 PM,53.6,21.2,28,30.25,10.0,East,4.6,-,N/A,,Clear,100,2012-10-12 23:55:00
7:15 PM,53.6,21.2,28,30.23,10.0,East,4.6,-,N/A,,Clear,100,2012-10-13 00:15:00
7:35 PM,53.6,24.8,33,30.22,10.0,East,5.8,-,N/A,,Clear,100,2012-10-13 00:35:00
7:55 PM,53.6,26.6,35,30.22,10.0,ESE,4.6,-,N/A,,Clear,120,2012-10-13 00:55:00
8:15 PM,53.6,26.6,35,30.21,10.0,ESE,5.8,-,N/A,,Clear,120,2012-10-13 01:15:00
8:35 PM,53.6,26.6,35,30.21,10.0,SE,4.6,-,N/A,,Clear,130,2012-10-13 01:35:00
9:15 PM,53.6,28.4,38,30.22,10.0,SE,4.6,-,N/A,,Clear,130,2012-10-13 02:15:00
9:35 PM,53.6,28.4,38,30.22,10.0,SSE,4.6,-,N/A,,Clear,150,2012-10-13 02:35:00
9:55 PM,53.6,28.4,38,30.21,10.0,SE,6.9,-,N/A,,Clear,140,2012-10-13 02:55:00
10:15 PM,53.6,28.4,38,30.21,10.0,SSE,5.8,-,N/A,,Mostly Cloudy,150,2012-10-13 03:15:00
10:55 PM,53.6,28.4,38,30.20,10.0,SE,4.6,-,N/A,Rain,Light Rain,130,2012-10-13 03:55:00
11:35 PM,53.6,35.6,51,30.19,10.0,ESE,6.9,-,N/A,Rain,Light Rain,120,2012-10-13 04:35:00
11:55 PM,51.8,37.4,58,30.18,10.0,ESE,6.9,-,N/A,Rain,Light Rain,120,2012-10-13 04:55:00